Location: Songkhla
(7.2000°N, 100.6000°E)
Time: 14:54:34
(UTC+07:00)

ISS - Visible Passes

Search period start: 11 August 2020 00:00
Search period end: 21 August 2020 00:00
Orbit: 418 x 420 km, 51.6° (Epoch: 11 August)

Date Brightness Start Highest point End Pass type
(mag) Time Alt. Az. Time Alt. Az. Time Alt. Az.
11 Aug -3.9 19:26:30 10° NW 19:29:52 85° ENE 19:31:43 24° SE visible
13 Aug -1.1 19:29:09 10° W 19:31:24 17° SW 19:33:40 10° SSW visible
16 Aug -0.8 05:34:14 10° SSE 05:35:48 13° SE 05:37:23 10° E visible
18 Aug -3.5 05:33:56 10° SSW 05:37:15 68° SE 05:40:35 10° NE visible
19 Aug -1.9 04:48:28 21° SSE 04:49:42 27° SE 04:52:36 10° ENE visible
20 Aug -0.3 04:03:37 10° E 04:03:37 10° E 04:03:41 10° E visible
20 Aug -2.2 05:36:38 13° W 05:38:42 21° NW 05:41:18 10° N visible
